Regional Weather Roundup
Issued by NWS

Home | Current Version | Previous Version | Graphics & Text | Print | Product List | Glossary On
Versions: 1 2 3 4 5 6 7 8 9 10 11 12 13 14 15 16 17 18 19 20 21 22 23 24 25 26 27 28 29 30 31 32 33 34 35 36 37 38 39 40 41 42 43 44 45 46 47 48 49 50
000
ASUS43 KLSX 021407
RWRMO

WEATHER SUMMARY FOR MISSOURI
NATIONAL WEATHER SERVICE SPRINGFIELD MO
900 AM CDT THU JUL 02 2015

NOTE: "FAIR" INDICATES FEW OR NO CLOUDS BELOW 12,000 FEET WITH NO
       SIGNIFICANT WEATHER AND/OR OBSTRUCTIONS TO VISIBILITY.
       CURRENT SKY AND/OR WEATHER CONDITIONS ARE NOT AVAILABLE FOR
       CHILLICOTHE AND FARMINGTON.

MOZ001>031-035>038-043-044-053-054-021500-
...NORTHERN AND WESTERN MISSOURI...

CITY           SKY/WX    TMP DP  RH WIND       PRES   REMARKS
KANSAS CTY INT CLOUDY    71  68  90 NE8       29.92R FOG
KANSAS C DTWN  CLOUDY    73  68  84 NE10      29.90R
LEE`S SUMMIT   CLOUDY    71  68  90 NE8       29.91R
ST JOSEPH      CLOUDY    70  67  90 N8        29.93R
CHILLICOTHE      N/A     70  65  84 NE9       29.94R
KIRKSVILLE     CLOUDY    65  61  87 E10       29.96R

$$
MOZ066>068-077>081-088>096-101>105-021500-
...SOUTHWEST MISSOURI...

CITY           SKY/WX    TMP DP  RH WIND       PRES   REMARKS
SPRINGFIELD    CLOUDY    72  68  87 SE15      29.86R
JOPLIN         MOSUNNY   81  72  74 SW7       29.84R

$$
MOZ032>034-039>042-045>050-055>058-069>072-021500-
...CENTRAL MISSOURI...

CITY           SKY/WX    TMP DP  RH WIND       PRES   REMARKS
COLUMBIA       CLOUDY    70  68  93 NE14      29.90R FOG
JEFFERSON CITY CLOUDY    73  69  87 E5        29.87R
ROLLA          CLOUDY    70  68  93 CALM      29.88R
SEDALIA        CLOUDY    73  69  87 E5        29.90R
WHITEMAN AFB   CLOUDY    72  70  93 E5        29.88R FOG
WARRENSBURG    CLOUDY    70  68  94 NE5       29.89R FOG
OSAGE BEACH    CLOUDY    70  66  88 E3        29.88R

$$
MOZ051-052-059>065-021500-
...EAST CENTRAL MISSOURI...

CITY           SKY/WX    TMP DP  RH WIND       PRES   REMARKS
ST LOUIS INTL  CLOUDY    66  60  81 NE9       29.89S
SPIRIT OF STL  CLOUDY    64  63  96 NE9       29.88R FOG
ST CHARLES     CLOUDY    65  59  81 NE9       29.89S

$$
MOZ072>076-082>087-097>100-106>115-021500-
...SOUTH CENTRAL AND SOUTHEAST MISSOURI...

CITY           SKY/WX    TMP DP  RH WIND       PRES   REMARKS
CAPE GIRARDEAU SUNNY     77  71  82 CALM      29.84F
FARMINGTON     MOSUNNY   72  70  94 S5        29.90S
WEST PLAINS    PTSUNNY   71  66  84 SW14      29.90S

$$


USA.gov is the U.S. government's official web portal to all federal, state and local government web resources and services.